Regional Weather Roundup
Issued by NWS Cleveland, OH

Home | Current Version | Previous Version | Text Only | Print | Product List | Glossary Off
Versions: 1 2 3 4 5 6 7 8 9 10 11 12 13 14 15 16 17 18 19 20 21 22 23 24 25 26 27 28 29 30 31 32 33 34 35 36 37 38 39 40 41 42 43 44 45 46 47 48 49 50

968
ASUS41 KCLE 032210
RWRCLE
OHIO REGIONAL WEATHER ROUNDUP
NATIONAL WEATHER SERVICE WILMINGTON, OH
500 PM EST SAT DEC 03 2016

NOTE: "FAIR" INDICATES FEW OR NO CLOUDS BELOW 12,000 FEET WITH NO
SIGNIFICANT WEATHER AND/OR OBSTRUCTIONS TO VISIBILITY.

OHZ001>008-015>018-024>027-034-035-043-044-032300-
   NORTHWEST OHIO

CITY           SKY/WX    TMP DP  RH WIND       PRES   REMARKS
DEFIANCE       CLOUDY    38  26  62 W5        30.33R
FINDLAY        CLOUDY    38  24  57 W6        30.31S
TOLEDO EXPRESS CLOUDY    37  29  72 NW3       30.32R
TOLEDO EXEC    CLOUDY    38  29  70 W6        30.32S
LIMA           CLOUDY    36  27  69 W8        30.31F
$$

OHZ009>014-019>023-028>033-038-089-032300-
   NORTHEAST OHIO

CITY           SKY/WX    TMP DP  RH WIND       PRES   REMARKS
CLE-HOPKINS    CLOUDY    39  28  64 SW7       30.33R
CLE-LAKEFRONT  CLOUDY    39  29  67 SW14      30.30S
CUY CO. ARPT   CLOUDY    37  36  93 W10       30.30S
LORAIN-ELYRIA  CLOUDY    37  27  67 W3        30.31S
ASHTABULA      LGT RAIN  37  35  92 W9        30.28S
AKRON-CANTON   CLOUDY    37  26  64 W8        30.30R
WOOSTER        CLOUDY    36  26  67 W8        30.31R
MANSFIELD      CLOUDY    35  25  66 W7        30.29S WCI  29
YOUNGSTOWN     CLOUDY    36  30  79 W9        30.28R
$$

OHZ042-051>053-060>062-070>072-077>081-032300-
  SOUTHWEST OHIO

CITY           SKY/WX    TMP DP  RH WIND       PRES   REMARKS
CINC-COVINGTON CLOUDY    40  29  64 CALM      30.30S
CINC-LUNKEN    CLOUDY    42  31  64 CALM      30.33S
HAMILTON       CLOUDY    41  29  62 CALM      30.33S
DAYTON         CLOUDY    37  26  64 CALM      30.31F
WRIGHT-PAT AFB CLOUDY    38  27  63 W3        30.31S
DAYTON GENERAL CLOUDY    39  26  59 NW3       30.30S
WILMINGTON     CLOUDY    38  27  64 CALM      30.30S
$$

OHZ036-037-039>041-045>050-054>059-063>069-073>076-082>088-032300-
  CENTRAL AND SOUTHEAST OHIO

CITY           SKY/WX    TMP DP  RH WIND       PRES   REMARKS
COLUMBUS       CLOUDY    38  30  73 NW7       30.31S
OSU AIRPORT    CLOUDY    38  29  70 NW6       30.30F
BOLTON FIELD   CLOUDY    37  30  75 N6        30.31F
RICKENBACK AFB CLOUDY    38  31  74 CALM      30.31S
NEWARK         CLOUDY    38  26  62 CALM      30.31S
MARION         CLOUDY    37  26  64 NW6       30.31F
LANCASTER      CLOUDY    39  27  62 CALM      30.32S
ZANESVILLE     CLOUDY    38  27  64 CALM      30.32S
NEW PHILLY     CLOUDY    37  26  64 W5        30.32S
$$




USA.gov is the U.S. government's official web portal to all federal, state and local government web resources and services.